Regional Weather Roundup
Issued by NWS

Home | Current Version | Previous Version | Graphics & Text | Print | Product List | Glossary On
Versions: 1 2 3 4 5 6 7 8 9 10 11 12 13 14 15 16 17 18 19 20 21 22 23 24 25 26 27 28 29 30 31 32 33 34 35 36 37 38 39 40 41 42 43 44 45 46 47 48 49 50
547
ASUS45 KBOI 210010
RWRID

IDAHO REGIONAL WEATHER ROUNDUP
NATIONAL WEATHER SERVICE BOISE ID
500 PM MST MON NOV 20 2017

NOTE: "FAIR" INDICATES FEW OR NO CLOUDS BELOW 12000 FEET
WITH NO SIGNIFICANT WEATHER AND/OR OBSTRUCTIONS TO VISIBILITY

IDZ012-014-210100-
SOUTHWEST IDAHO


CITY           SKY/WX    TMP DP  RH WIND       PRES   REMARKS
BOISE          CLOUDY    47  40  76 SE13      29.96R
CALDWELL       CLOUDY    49  42  77 E14G20    29.95R
MOUNTAIN HOME  CLOUDY    43  43 100 E14       29.99R
$$

IDZ016-017-210100-
SOUTHCENTRAL IDAHO


CITY           SKY/WX    TMP DP  RH WIND       PRES   REMARKS
BURLEY         LGT RAIN  46  38  73 SW18      30.01F
JEROME         LGT RAIN  43  41  93 E3        30.02S
TWIN FALLS     CLOUDY    47  42  83 S13       30.01R
$$

IDZ019>023-210100-
SOUTHEAST IDAHO


CITY           SKY/WX    TMP DP  RH WIND       PRES   REMARKS
IDAHO FALLS    CLOUDY    38  37  97 SW15      30.02F WCI  29
POCATELLO      CLOUDY    44  33  65 S18       30.03F
REXBURG        CLOUDY    37  33  85 S12G22    29.99F WCI  29
$$

IDZ006-010-011-018-031-032-210100-
CENTRAL IDAHO MOUNTAINS


CITY           SKY/WX    TMP DP  RH WIND       PRES   REMARKS
MCCALL         CLOUDY    38  35  89 SE15      29.89R WCI  29
HAILEY         LGT SNOW  34  34 100 CALM      30.04S VSB 1
STANLEY          N/A     37  35  92 CALM      29.95R
SALMON         CLOUDY    36  32  85 S3        29.87F
CHALLIS        CLOUDY    44  36  73 S9        29.88S
$$

IDZ002-004-006-007-026-210100-
NORTHERN IDAHO


CITY           SKY/WX    TMP DP  RH WIND       PRES   REMARKS
LEWISTON       MOCLDY    49  47  93 S9        29.83R
LOWELL           N/A     40  39  97 CALM      29.89R
COEUR D`ALENE  LGT RAIN  45  42  89 S6        29.74R
MULLAN PASS    LGT SNOW  31  29  92 S9        29.73R VSB 3/4 WCI  23
$$




USA.gov is the U.S. government's official web portal to all federal, state and local government web resources and services.